UAL133 PGUM-PTKK

Flight info

Callsign UAL133
Flight time 1h 21m
Altitude 37000
Route GUNSS WUMVE
Aircraft A320/M-SDE3FGHIRWY/LB1

Departure

Time 2026-04-24 07:40
Airport Antonio B. Won Pat International Airport (PGUM)

Arrival

Time 2026-04-24 09:01
Airport Chuuk International Airport (PTKK)
Time Latitude Longitude Altitude Speed Heading
2026-04-24 07:17 13.49112 144.80409 294 ft 0 kts 332°
2026-04-24 07:29 13.49107 144.80412 295 ft 4 kts 332°
2026-04-24 07:29 13.49083 144.80425 293 ft 4 kts 332°
2026-04-24 07:30 13.49059 144.80438 294 ft 4 kts 331°
2026-04-24 07:30 13.49038 144.80454 291 ft 4 kts 301°
2026-04-24 07:30 13.49033 144.80477 295 ft 4 kts 247°
2026-04-24 07:30 13.49036 144.80483 295 ft 0 kts 240°
2026-04-24 07:34 13.49030 144.80473 295 ft 4 kts 240°
2026-04-24 07:35 13.49014 144.80444 291 ft 9 kts 240°
2026-04-24 07:35 13.48957 144.80391 288 ft 13 kts 214°
2026-04-24 07:35 13.48895 144.80306 287 ft 17 kts 238°
2026-04-24 07:35 13.48829 144.80179 288 ft 24 kts 244°
2026-04-24 07:36 13.48750 144.80009 279 ft 28 kts 244°
2026-04-24 07:36 13.48662 144.79816 274 ft 32 kts 245°
2026-04-24 07:36 13.48572 144.79618 270 ft 31 kts 245°
2026-04-24 07:36 13.48481 144.79420 265 ft 31 kts 244°
2026-04-24 07:37 13.48399 144.79241 261 ft 29 kts 245°
2026-04-24 07:37 13.48309 144.79046 257 ft 32 kts 245°
2026-04-24 07:37 13.48211 144.78830 253 ft 35 kts 245°
2026-04-24 07:37 13.48113 144.78615 249 ft 30 kts 245°
2026-04-24 07:38 13.48022 144.78416 243 ft 28 kts 244°
2026-04-24 07:38 13.47934 144.78224 238 ft 25 kts 244°
2026-04-24 07:38 13.47863 144.78130 239 ft 13 kts 190°
2026-04-24 07:38 13.47788 144.78167 236 ft 9 kts 109°
2026-04-24 07:39 13.47794 144.78181 236 ft 2 kts 60°
2026-04-24 07:39 13.47813 144.78226 237 ft 18 kts 66°
2026-04-24 07:39 13.47970 144.78569 245 ft 86 kts 65°
2026-04-24 07:39 13.48302 144.79293 261 ft 136 kts 65°
2026-04-24 07:40 13.48750 144.80271 471 ft 159 kts 66°
2026-04-24 07:40 13.49215 144.81269 1169 ft 153 kts 65°
2026-04-24 07:40 13.49663 144.82250 1809 ft 151 kts 66°
2026-04-24 07:40 13.50130 144.83280 2151 ft 169 kts 66°
2026-04-24 07:41 13.50654 144.84451 2399 ft 192 kts 69°
2026-04-24 07:41 13.50807 144.85861 2723 ft 213 kts 95°
2026-04-24 07:41 13.50446 144.87426 3111 ft 239 kts 114°
2026-04-24 07:41 13.49427 144.88845 3807 ft 253 kts 128°
2026-04-24 07:42 13.48254 144.90236 4644 ft 260 kts 128°
2026-04-24 07:42 13.47050 144.91646 5452 ft 264 kts 129°
2026-04-24 07:42 13.45827 144.93075 6270 ft 268 kts 129°
2026-04-24 07:42 13.44588 144.94522 7061 ft 272 kts 129°
2026-04-24 07:43 13.43327 144.95992 7802 ft 276 kts 129°
2026-04-24 07:43 13.42046 144.97484 8532 ft 281 kts 129°
2026-04-24 07:43 13.40739 144.99014 9240 ft 287 kts 128°
2026-04-24 07:43 13.39406 145.00573 9938 ft 293 kts 128°
2026-04-24 07:44 13.38042 145.02167 10262 ft 312 kts 128°
2026-04-24 07:44 13.36560 145.03905 10417 ft 335 kts 128°
2026-04-24 07:44 13.34990 145.05744 10606 ft 353 kts 128°
2026-04-24 07:44 13.33331 145.07678 11100 ft 361 kts 128°
2026-04-24 07:45 13.31659 145.09627 11674 ft 365 kts 129°
2026-04-24 07:45 13.29968 145.11597 12251 ft 370 kts 129°
2026-04-24 07:45 13.28254 145.13591 12814 ft 375 kts 129°
2026-04-24 07:45 13.26540 145.15582 13316 ft 380 kts 129°
2026-04-24 07:46 13.24753 145.17663 13893 ft 384 kts 129°
2026-04-24 07:46 13.22982 145.19727 14425 ft 387 kts 130°
2026-04-24 07:46 13.21216 145.21783 14927 ft 390 kts 130°
2026-04-24 07:46 13.19415 145.23879 15457 ft 393 kts 130°
2026-04-24 07:47 13.17602 145.25989 15960 ft 395 kts 130°
2026-04-24 07:47 13.15786 145.28109 16492 ft 398 kts 130°
2026-04-24 07:47 13.13955 145.30251 17043 ft 400 kts 130°
2026-04-24 07:47 13.12130 145.32385 17559 ft 403 kts 130°
2026-04-24 07:48 13.10883 145.33838 17913 ft 405 kts 130°
2026-04-24 07:48 13.08988 145.36044 18409 ft 408 kts 131°
2026-04-24 07:48 13.07133 145.38203 18858 ft 411 kts 131°
2026-04-24 07:48 13.05236 145.40409 19321 ft 413 kts 130°
2026-04-24 07:49 13.03328 145.42629 19754 ft 417 kts 130°
2026-04-24 07:49 13.01400 145.44871 20178 ft 421 kts 130°
2026-04-24 07:49 12.99456 145.47132 20634 ft 424 kts 130°
2026-04-24 07:49 12.97491 145.49415 21089 ft 426 kts 131°
2026-04-24 07:50 12.95525 145.51695 21515 ft 429 kts 130°
2026-04-24 07:50 12.93533 145.54006 21914 ft 433 kts 130°
2026-04-24 07:50 12.91530 145.56329 22279 ft 437 kts 130°
2026-04-24 07:50 12.89515 145.58669 22681 ft 439 kts 130°
2026-04-24 07:51 12.87486 145.61024 23100 ft 441 kts 130°
2026-04-24 07:51 12.85448 145.63389 23435 ft 444 kts 130°
2026-04-24 07:51 12.83419 145.65741 23710 ft 448 kts 130°
2026-04-24 07:51 12.81321 145.68174 24027 ft 450 kts 130°
2026-04-24 07:52 12.79246 145.70579 24348 ft 451 kts 131°
2026-04-24 07:52 12.77165 145.72990 24643 ft 454 kts 131°
2026-04-24 07:52 12.75094 145.75391 24915 ft 457 kts 131°
2026-04-24 07:52 12.72983 145.77838 25195 ft 459 kts 131°
2026-04-24 07:53 12.70868 145.80289 25523 ft 460 kts 131°
2026-04-24 07:53 12.68761 145.82728 25825 ft 461 kts 131°
2026-04-24 07:53 12.66611 145.85213 26110 ft 463 kts 131°
2026-04-24 07:53 12.64467 145.87693 26357 ft 466 kts 131°
2026-04-24 07:54 12.62313 145.90179 26639 ft 468 kts 131°
2026-04-24 07:54 12.60149 145.92678 26964 ft 468 kts 131°
2026-04-24 07:54 12.57992 145.95179 27216 ft 471 kts 132°
2026-04-24 07:54 12.55825 145.97693 27451 ft 474 kts 132°
2026-04-24 07:55 12.53628 146.00239 27740 ft 475 kts 132°
2026-04-24 07:55 12.51432 146.02781 28051 ft 476 kts 132°
2026-04-24 07:55 12.49224 146.05331 28308 ft 479 kts 132°
2026-04-24 07:55 12.47035 146.07849 28525 ft 482 kts 132°
2026-04-24 07:56 12.44803 146.10418 28785 ft 484 kts 132°
2026-04-24 07:56 12.42578 146.12983 29111 ft 484 kts 132°
2026-04-24 07:56 12.40334 146.15572 29520 ft 483 kts 132°
2026-04-24 07:56 12.38108 146.18144 29910 ft 483 kts 133°
2026-04-24 07:57 12.35892 146.20704 30231 ft 482 kts 133°
2026-04-24 07:57 12.33655 146.23284 30607 ft 480 kts 132°
2026-04-24 07:57 12.31447 146.25835 31026 ft 478 kts 133°
2026-04-24 07:57 12.29243 146.28376 31373 ft 478 kts 133°
2026-04-24 07:58 12.27044 146.30904 31727 ft 477 kts 133°
2026-04-24 07:58 12.24829 146.33445 32111 ft 476 kts 133°
2026-04-24 07:58 12.22634 146.35964 32538 ft 474 kts 133°
2026-04-24 07:58 12.20437 146.38489 32927 ft 473 kts 133°
2026-04-24 07:59 12.18259 146.40992 33282 ft 473 kts 133°
2026-04-24 07:59 12.16071 146.43508 33693 ft 471 kts 133°
2026-04-24 07:59 12.13904 146.46005 34105 ft 469 kts 133°
2026-04-24 07:59 12.11737 146.48503 34455 ft 468 kts 133°
2026-04-24 08:00 12.09572 146.50996 34773 ft 468 kts 134°
2026-04-24 08:00 12.07446 146.53438 35067 ft 468 kts 134°
2026-04-24 08:00 12.05273 146.55933 35388 ft 467 kts 133°
2026-04-24 08:00 12.03087 146.58439 35714 ft 466 kts 134°
2026-04-24 08:01 12.00960 146.60879 36000 ft 466 kts 134°
2026-04-24 08:01 11.98777 146.63389 36284 ft 466 kts 133°
2026-04-24 08:01 11.96655 146.65831 36567 ft 466 kts 133°
2026-04-24 08:01 11.94480 146.68325 36860 ft 466 kts 134°
2026-04-24 08:02 11.90172 146.73261 36948 ft 470 kts 134°
2026-04-24 08:02 11.85812 146.78249 36948 ft 471 kts 134°
2026-04-24 08:03 11.81482 146.83204 36948 ft 471 kts 134°
2026-04-24 08:03 11.77101 146.88218 36947 ft 471 kts 133°
2026-04-24 08:04 11.72734 146.93228 36948 ft 471 kts 134°
2026-04-24 08:04 11.68373 146.98226 36948 ft 471 kts 134°
2026-04-24 08:05 11.63998 147.03224 36948 ft 472 kts 134°
2026-04-24 08:05 11.59627 147.08212 36951 ft 472 kts 134°
2026-04-24 08:06 11.55248 147.13208 36957 ft 472 kts 134°
2026-04-24 08:06 11.50921 147.18146 36955 ft 472 kts 134°
2026-04-24 08:07 11.46521 147.23168 36952 ft 472 kts 134°
2026-04-24 08:07 11.42145 147.28157 36955 ft 472 kts 134°
2026-04-24 08:08 11.37763 147.33146 36953 ft 472 kts 133°
2026-04-24 08:09 11.31186 147.40641 36954 ft 473 kts 133°
2026-04-24 08:09 11.26801 147.45640 36955 ft 473 kts 133°
2026-04-24 08:10 11.22418 147.50633 36958 ft 473 kts 133°
2026-04-24 08:10 11.18023 147.55632 36955 ft 473 kts 133°
2026-04-24 08:11 11.13676 147.60571 36951 ft 473 kts 133°
2026-04-24 08:11 11.09261 147.65578 36947 ft 473 kts 133°
2026-04-24 08:12 11.04869 147.70572 36953 ft 473 kts 133°
2026-04-24 08:12 11.00469 147.75564 36953 ft 473 kts 133°
2026-04-24 08:13 10.96079 147.80536 36951 ft 473 kts 133°
2026-04-24 08:13 10.91665 147.85540 36951 ft 473 kts 133°
2026-04-24 08:14 10.87269 147.90523 36949 ft 473 kts 133°
2026-04-24 08:14 10.82882 147.95496 36948 ft 473 kts 133°
2026-04-24 08:15 10.78506 148.00455 36948 ft 473 kts 133°
2026-04-24 08:15 10.74070 148.05470 36953 ft 473 kts 134°
2026-04-24 08:16 10.69696 148.10477 36954 ft 473 kts 133°
2026-04-24 08:16 10.65421 148.15509 36953 ft 473 kts 132°
2026-04-24 08:17 10.61128 148.20586 36951 ft 473 kts 132°
2026-04-24 08:17 10.56820 148.25635 36952 ft 472 kts 133°
2026-04-24 08:18 10.52507 148.30671 36951 ft 472 kts 133°
2026-04-24 08:18 10.48205 148.35700 36953 ft 471 kts 133°
2026-04-24 08:19 10.43903 148.40719 36957 ft 471 kts 133°
2026-04-24 08:19 10.39625 148.45721 36954 ft 471 kts 132°
2026-04-24 08:20 10.35322 148.50741 36959 ft 470 kts 133°
2026-04-24 08:20 10.31018 148.55752 36952 ft 470 kts 133°
2026-04-24 08:21 10.26728 148.60761 36951 ft 470 kts 133°
2026-04-24 08:21 10.22442 148.65760 36952 ft 469 kts 133°
2026-04-24 08:22 10.18179 148.70724 36957 ft 469 kts 133°
2026-04-24 08:22 10.13880 148.75722 36943 ft 469 kts 133°
2026-04-24 08:23 10.09565 148.80745 36949 ft 469 kts 133°
2026-04-24 08:23 10.05315 148.85702 36956 ft 468 kts 133°
2026-04-24 08:24 10.01006 148.90711 36952 ft 468 kts 133°
2026-04-24 08:24 9.96747 148.95648 36953 ft 468 kts 133°
2026-04-24 08:25 9.92462 149.00619 36956 ft 468 kts 133°
2026-04-24 08:25 9.88190 149.05588 36950 ft 467 kts 133°
2026-04-24 08:26 9.83917 149.10560 36948 ft 467 kts 133°
2026-04-24 08:26 9.79648 149.15521 36953 ft 467 kts 133°
2026-04-24 08:27 9.75380 149.20475 36945 ft 466 kts 133°
2026-04-24 08:27 9.71115 149.25426 36943 ft 466 kts 133°
2026-04-24 08:28 9.66861 149.30345 36951 ft 465 kts 133°
2026-04-24 08:28 9.62592 149.35287 36951 ft 465 kts 133°
2026-04-24 08:29 9.58326 149.40237 36942 ft 465 kts 133°
2026-04-24 08:29 9.54069 149.45169 36943 ft 465 kts 133°
2026-04-24 08:30 9.49808 149.50095 36937 ft 465 kts 133°
2026-04-24 08:30 9.45542 149.55023 36938 ft 465 kts 133°
2026-04-24 08:31 9.41270 149.59943 36937 ft 465 kts 133°
2026-04-24 08:31 9.37037 149.64830 36954 ft 464 kts 133°
2026-04-24 08:32 9.32801 149.69746 36952 ft 463 kts 133°
2026-04-24 08:32 9.29247 149.73858 36938 ft 463 kts 133°
2026-04-24 08:33 9.25003 149.78759 36938 ft 462 kts 133°
2026-04-24 08:33 9.20774 149.83642 36946 ft 462 kts 133°
2026-04-24 08:34 9.16524 149.88533 36940 ft 462 kts 133°
2026-04-24 08:34 9.12301 149.93388 36954 ft 461 kts 133°
2026-04-24 08:35 9.08061 149.98286 36950 ft 460 kts 133°
2026-04-24 08:35 9.03869 150.03116 36943 ft 459 kts 133°
2026-04-24 08:36 8.99645 150.07976 36941 ft 459 kts 133°
2026-04-24 08:36 8.95433 150.12828 36945 ft 458 kts 133°
2026-04-24 08:37 8.91232 150.17667 36934 ft 458 kts 133°
2026-04-24 08:37 8.87011 150.22519 36930 ft 458 kts 133°
2026-04-24 08:38 8.82806 150.27354 36947 ft 457 kts 133°
2026-04-24 08:38 8.78606 150.32184 36946 ft 457 kts 133°
2026-04-24 08:39 8.74409 150.37009 36931 ft 456 kts 133°
2026-04-24 08:39 8.70202 150.41823 36931 ft 456 kts 133°
2026-04-24 08:40 8.66028 150.46612 36931 ft 456 kts 133°
2026-04-24 08:40 8.61838 150.51429 36925 ft 456 kts 133°
2026-04-24 08:41 8.57646 150.56237 36929 ft 456 kts 133°
2026-04-24 08:41 8.53452 150.61050 36940 ft 456 kts 132°
2026-04-24 08:42 8.49265 150.65851 36942 ft 455 kts 133°
2026-04-24 08:42 8.45089 150.70642 36941 ft 454 kts 133°
2026-04-24 08:43 8.40911 150.75425 36942 ft 453 kts 133°
2026-04-24 08:43 8.36745 150.80193 36932 ft 453 kts 133°
2026-04-24 08:43 8.34659 150.82581 36785 ft 453 kts 133°
2026-04-24 08:44 8.32561 150.84982 35737 ft 462 kts 132°
2026-04-24 08:44 8.30404 150.87455 34693 ft 471 kts 132°
2026-04-24 08:44 8.28232 150.89946 33698 ft 477 kts 132°
2026-04-24 08:44 8.26044 150.92453 32686 ft 480 kts 132°
2026-04-24 08:45 8.23832 150.94985 31658 ft 482 kts 131°
2026-04-24 08:45 8.21614 150.97526 30607 ft 485 kts 131°
2026-04-24 08:45 8.19380 151.00078 29441 ft 488 kts 131°
2026-04-24 08:45 8.17109 151.02663 28187 ft 491 kts 131°
2026-04-24 08:46 8.14853 151.05234 27221 ft 486 kts 130°
2026-04-24 08:46 8.12634 151.07770 26310 ft 483 kts 130°
2026-04-24 08:46 8.10419 151.10301 25512 ft 477 kts 130°
2026-04-24 08:46 8.08232 151.12801 24762 ft 471 kts 130°
2026-04-24 08:47 8.06084 151.15256 24047 ft 465 kts 130°
2026-04-24 08:47 8.03945 151.17699 23311 ft 459 kts 129°
2026-04-24 08:47 8.01849 151.20097 22518 ft 453 kts 130°
2026-04-24 08:47 7.99772 151.22473 21734 ft 448 kts 130°
2026-04-24 08:48 7.97731 151.24798 20976 ft 443 kts 130°
2026-04-24 08:48 7.95692 151.27116 20273 ft 436 kts 130°
2026-04-24 08:48 7.93692 151.29392 19571 ft 431 kts 130°
2026-04-24 08:48 7.91739 151.31619 18903 ft 425 kts 130°
2026-04-24 08:49 7.89791 151.33842 18243 ft 421 kts 130°
2026-04-24 08:49 7.87860 151.36051 17523 ft 417 kts 130°
2026-04-24 08:49 7.85967 151.38216 16842 ft 413 kts 130°
2026-04-24 08:49 7.84059 151.40400 16209 ft 409 kts 130°
2026-04-24 08:50 7.82198 151.42525 15621 ft 405 kts 130°
2026-04-24 08:50 7.80333 151.44623 15043 ft 401 kts 133°
2026-04-24 08:50 7.78179 151.46419 14403 ft 396 kts 144°
2026-04-24 08:50 7.75753 151.47706 13250 ft 391 kts 154°
2026-04-24 08:51 7.73300 151.48801 12480 ft 375 kts 154°
2026-04-24 08:51 7.71007 151.49809 12286 ft 345 kts 154°
2026-04-24 08:51 7.68918 151.50726 12153 ft 319 kts 154°
2026-04-24 08:51 7.66900 151.51616 11705 ft 307 kts 153°
2026-04-24 08:52 7.64954 151.52482 11126 ft 301 kts 153°
2026-04-24 08:52 7.63072 151.53324 10500 ft 299 kts 153°
2026-04-24 08:52 7.61187 151.54172 9894 ft 297 kts 153°
2026-04-24 08:52 7.59310 151.55016 9329 ft 291 kts 153°
2026-04-24 08:53 7.57467 151.55841 8931 ft 291 kts 153°
2026-04-24 08:53 7.55610 151.56670 8518 ft 292 kts 153°
2026-04-24 08:53 7.53754 151.57498 8206 ft 289 kts 153°
2026-04-24 08:53 7.51933 151.58307 7689 ft 285 kts 153°
2026-04-24 08:54 7.50115 151.59115 7065 ft 284 kts 153°
2026-04-24 08:54 7.48316 151.59915 6465 ft 282 kts 153°
2026-04-24 08:54 7.46538 151.60706 5861 ft 279 kts 152°
2026-04-24 08:54 7.44772 151.61495 5372 ft 277 kts 152°
2026-04-24 08:55 7.43108 151.62454 4988 ft 273 kts 138°
2026-04-24 08:55 7.41737 151.63718 4672 ft 263 kts 133°
2026-04-24 08:55 7.40445 151.64968 4312 ft 252 kts 133°
2026-04-24 08:55 7.39203 151.66168 3967 ft 242 kts 133°
2026-04-24 08:56 7.38008 151.67324 3638 ft 232 kts 133°
2026-04-24 08:56 7.36866 151.68428 3309 ft 222 kts 133°
2026-04-24 08:56 7.35786 151.69476 2995 ft 211 kts 132°
2026-04-24 08:56 7.35027 151.70638 2733 ft 188 kts 105°
2026-04-24 08:57 7.34914 151.71879 2469 ft 172 kts 79°
2026-04-24 08:57 7.35314 151.72929 2353 ft 155 kts 58°
2026-04-24 08:57 7.36023 151.73733 2266 ft 157 kts 48°
2026-04-24 08:57 7.36794 151.74534 2146 ft 159 kts 48°
2026-04-24 08:58 7.37547 151.75316 2042 ft 157 kts 47°
2026-04-24 08:58 7.38309 151.76108 1931 ft 157 kts 47°
2026-04-24 08:58 7.39069 151.76900 1820 ft 158 kts 49°
2026-04-24 08:58 7.39831 151.77694 1710 ft 157 kts 47°
2026-04-24 08:59 7.40590 151.78482 1482 ft 156 kts 48°
2026-04-24 08:59 7.41315 151.79232 1293 ft 141 kts 47°
2026-04-24 08:59 7.41980 151.79920 1106 ft 134 kts 47°
2026-04-24 08:59 7.42633 151.80596 923 ft 133 kts 47°
2026-04-24 09:00 7.43271 151.81257 753 ft 131 kts 49°
2026-04-24 09:00 7.43919 151.81913 596 ft 130 kts 45°
2026-04-24 09:00 7.44513 151.82570 358 ft 127 kts 46°
2026-04-24 09:00 7.45137 151.83218 181 ft 132 kts 47°
2026-04-24 09:01 7.45779 151.83882 26 ft 132 kts 46°
2026-04-24 09:01 7.46303 151.84422 6 ft 69 kts 46°
2026-04-24 09:01 7.46502 151.84627 8 ft 33 kts 45°
2026-04-24 09:01 7.46655 151.84786 12 ft 28 kts 46°
2026-04-24 09:02 7.46702 151.84852 12 ft 6 kts 82°
2026-04-24 09:02 7.46724 151.84902 12 ft 10 kts 29°
2026-04-24 09:02 7.46728 151.84861 12 ft 9 kts 224°
2026-04-24 09:02 7.46680 151.84812 12 ft 11 kts 225°
2026-04-24 09:03 7.46602 151.84731 10 ft 20 kts 226°
2026-04-24 09:03 7.46496 151.84620 8 ft 23 kts 226°
2026-04-24 09:03 7.46378 151.84498 8 ft 26 kts 225°
2026-04-24 09:03 7.46245 151.84363 7 ft 27 kts 228°
2026-04-24 09:04 7.46127 151.84236 8 ft 25 kts 230°
2026-04-24 09:04 7.46034 151.84137 11 ft 16 kts 224°
2026-04-24 09:04 7.45972 151.84076 12 ft 11 kts 223°
2026-04-24 09:04 7.45924 151.84037 12 ft 7 kts 204°
2026-04-24 09:05 7.45875 151.84056 13 ft 5 kts 138°
2026-04-24 09:05 7.45845 151.84082 13 ft 6 kts 138°
2026-04-24 09:05 7.45804 151.84109 14 ft 8 kts 150°
2026-04-24 09:05 7.45792 151.84116 14 ft 0 kts 150°